Time,TemperatureF,DewpointF,PressureIn,WindDirection,WindDirectionDegrees,WindSpeedMPH,WindSpeedGustMPH,Humidity,HourlyPrecipIn,Conditions,Clouds,dailyrainin,SoftwareType,DateUTC
2013-02-21 00:00:00,31.8,11.4,30.07,ENE,68,0.0,0.0,42,0.00,,CLR,0.00,VWS V12.08,2013-02-21 05:00:00,
2013-02-21 00:05:00,31.8,11.4,30.07,ENE,68,0.0,0.0,42,0.00,,CLR,0.00,VWS V12.08,2013-02-21 05:05:00,
2013-02-21 00:10:00,31.3,11.9,30.07,ENE,68,0.0,0.0,44,0.00,,CLR,0.00,VWS V12.08,2013-02-21 05:10:00,
2013-02-21 00:15:00,31.3,11.9,30.07,ENE,68,0.0,0.0,44,0.00,,CLR,0.00,VWS V12.08,2013-02-21 05:15:00,
2013-02-21 00:20:00,31.3,12.4,30.07,ENE,68,0.0,0.0,45,0.00,,CLR,0.00,VWS V12.08,2013-02-21 05:20:00,
2013-02-21 00:25:00,31.3,12.4,30.07,ENE,68,0.0,0.0,45,0.00,,CLR,0.00,VWS V12.08,2013-02-21 05:25:00,
2013-02-21 00:30:00,30.9,12.6,30.07,ENE,68,0.0,0.0,46,0.00,,CLR,0.00,VWS V12.08,2013-02-21 05:30:00,
2013-02-21 00:35:00,30.9,12.6,30.07,ENE,68,0.0,0.0,46,0.00,,CLR,0.00,VWS V12.08,2013-02-21 05:35:00,
2013-02-21 00:40:00,30.9,12.1,30.07,East,90,0.0,0.0,45,0.00,,CLR,0.00,VWS V12.08,2013-02-21 05:40:00,
2013-02-21 00:45:00,30.7,12.4,30.08,East,90,0.0,0.0,46,0.00,,CLR,0.00,VWS V12.08,2013-02-21 05:45:00,
2013-02-21 00:50:00,30.7,12.4,30.08,East,90,0.0,0.0,46,0.00,,CLR,0.00,VWS V12.08,2013-02-21 05:50:00,
2013-02-21 00:56:00,30.7,11.9,30.08,East,90,0.0,0.0,45,0.00,,CLR,0.00,VWS V12.08,2013-02-21 05:56:00,
2013-02-21 01:01:00,30.7,12.4,30.08,East,90,0.0,0.0,46,0.00,,CLR,0.00,VWS V12.08,2013-02-21 06:01:00,
2013-02-21 01:06:00,30.7,11.9,30.09,East,90,0.0,0.0,45,0.00,,CLR,0.00,VWS V12.08,2013-02-21 06:06:00,
2013-02-21 01:11:00,30.7,11.9,30.08,East,90,0.0,0.0,45,0.00,,CLR,0.00,VWS V12.08,2013-02-21 06:11:00,
2013-02-21 01:16:00,30.7,11.4,30.09,East,90,0.0,0.0,44,0.00,,CLR,0.00,VWS V12.08,2013-02-21 06:16:00,
2013-02-21 01:21:00,30.6,11.8,30.08,East,90,0.0,0.0,45,0.00,,CLR,0.00,VWS V12.08,2013-02-21 06:21:00,
2013-02-21 01:26:00,30.6,11.8,30.08,East,90,0.0,0.0,45,0.00,,CLR,0.00,VWS V12.08,2013-02-21 06:26:00,
2013-02-21 01:31:00,30.2,11.9,30.08,East,90,0.0,0.0,46,0.00,,CLR,0.00,VWS V12.08,2013-02-21 06:31:00,
2013-02-21 01:36:00,30.2,11.9,30.08,East,90,0.0,0.0,46,0.00,,CLR,0.00,VWS V12.08,2013-02-21 06:36:00,
2013-02-21 01:41:00,30.0,12.2,30.08,East,90,0.0,0.0,47,0.00,,CLR,0.00,VWS V12.08,2013-02-21 06:41:00,
2013-02-21 01:46:00,30.0,12.2,30.08,East,90,0.0,0.0,47,0.00,,CLR,0.00,VWS V12.08,2013-02-21 06:46:00,
2013-02-21 01:51:00,30.0,12.2,30.08,East,90,0.0,0.0,47,0.00,,CLR,0.00,VWS V12.08,2013-02-21 06:51:00,
2013-02-21 01:56:00,29.8,12.6,30.08,East,90,0.0,0.0,48,0.00,,CLR,0.00,VWS V12.08,2013-02-21 06:56:00,
2013-02-21 02:01:00,29.7,12.9,30.08,East,90,0.0,0.0,49,0.00,,CLR,0.00,VWS V12.08,2013-02-21 07:01:00,
2013-02-21 02:06:00,29.5,12.7,30.08,East,90,0.0,0.0,49,0.00,,CLR,0.00,VWS V12.08,2013-02-21 07:06:00,
2013-02-21 02:11:00,29.5,12.7,30.08,East,90,0.0,0.0,49,0.00,,CLR,0.00,VWS V12.08,2013-02-21 07:11:00,
2013-02-21 02:16:00,29.3,13.0,30.08,East,90,0.0,0.0,50,0.00,,CLR,0.00,VWS V12.08,2013-02-21 07:16:00,
2013-02-21 02:21:00,29.3,13.0,30.08,East,90,0.0,0.0,50,0.00,,CLR,0.00,VWS V12.08,2013-02-21 07:21:00,
2013-02-21 02:26:00,29.1,13.3,30.08,East,90,0.0,0.0,51,0.00,,CLR,0.00,VWS V12.08,2013-02-21 07:26:00,
2013-02-21 02:31:00,29.1,13.3,30.09,East,90,0.0,0.0,51,0.00,,CLR,0.00,VWS V12.08,2013-02-21 07:31:00,
2013-02-21 02:36:00,28.9,13.5,30.09,East,90,0.0,0.0,52,0.00,,CLR,0.00,VWS V12.08,2013-02-21 07:36:00,
2013-02-21 02:41:00,28.6,13.2,30.09,East,90,0.0,0.0,52,0.00,,CLR,0.00,VWS V12.08,2013-02-21 07:41:00,
2013-02-21 02:46:00,28.6,13.6,30.09,East,90,0.0,0.0,53,0.00,,CLR,0.00,VWS V12.08,2013-02-21 07:46:00,
2013-02-21 02:51:00,28.6,13.6,30.09,East,90,0.0,0.0,53,0.00,,CLR,0.00,VWS V12.08,2013-02-21 07:51:00,
2013-02-21 02:56:00,28.2,13.7,30.09,East,90,0.0,0.0,54,0.00,,CLR,0.00,VWS V12.08,2013-02-21 07:56:00,
2013-02-21 03:01:00,28.2,13.3,30.09,East,90,0.0,0.0,53,0.00,,CLR,0.00,VWS V12.08,2013-02-21 08:01:00,
2013-02-21 03:06:00,28.2,13.7,30.09,East,90,0.0,0.0,54,0.00,,CLR,0.00,VWS V12.08,2013-02-21 08:06:00,
2013-02-21 03:11:00,28.2,14.6,30.09,ESE,112,0.0,0.0,56,0.00,,CLR,0.00,VWS V12.08,2013-02-21 08:11:00,
2013-02-21 03:16:00,28.2,15.0,30.08,ESE,112,0.0,0.0,57,0.00,,CLR,0.00,VWS V12.08,2013-02-21 08:16:00,
2013-02-21 03:21:00,28.2,15.0,30.08,ESE,112,0.0,0.0,57,0.00,,CLR,0.00,VWS V12.08,2013-02-21 08:21:00,
2013-02-21 03:26:00,27.9,14.2,30.09,ESE,112,0.0,0.0,56,0.00,,CLR,0.00,VWS V12.08,2013-02-21 08:26:00,
2013-02-21 03:31:00,27.7,13.6,30.09,ESE,112,0.0,0.0,55,0.00,,CLR,0.00,VWS V12.08,2013-02-21 08:31:00,
2013-02-21 03:36:00,27.5,13.9,30.09,ESE,112,0.0,0.0,56,0.00,,CLR,0.00,VWS V12.08,2013-02-21 08:36:00,
2013-02-21 03:41:00,27.5,14.7,30.08,ESE,112,0.0,0.0,58,0.00,,CLR,0.00,VWS V12.08,2013-02-21 08:41:00,
2013-02-21 03:46:00,27.5,14.7,30.09,ESE,112,0.0,0.0,58,0.00,,CLR,0.00,VWS V12.08,2013-02-21 08:46:00,
2013-02-21 03:51:00,27.5,14.7,30.09,ESE,112,0.0,0.0,58,0.00,,CLR,0.00,VWS V12.08,2013-02-21 08:51:00,
2013-02-21 03:56:00,27.3,14.9,30.09,ESE,112,0.0,0.0,59,0.00,,CLR,0.00,VWS V12.08,2013-02-21 08:56:00,
2013-02-21 04:01:00,27.1,14.3,30.09,ESE,112,0.0,0.0,58,0.00,,CLR,0.00,VWS V12.08,2013-02-21 09:01:00,
2013-02-21 04:06:00,27.0,14.2,30.10,ESE,112,0.0,0.0,58,0.00,,CLR,0.00,VWS V12.08,2013-02-21 09:06:00,
2013-02-21 04:11:00,27.0,14.6,30.10,ESE,112,0.0,0.0,59,0.00,,CLR,0.00,VWS V12.08,2013-02-21 09:11:00,
2013-02-21 04:16:00,27.0,14.6,30.09,ESE,112,0.0,0.0,59,0.00,,CLR,0.00,VWS V12.08,2013-02-21 09:16:00,
2013-02-21 04:21:00,27.1,14.7,30.10,ESE,112,0.0,0.0,59,0.00,,CLR,0.00,VWS V12.08,2013-02-21 09:21:00,
2013-02-21 04:26:00,27.1,14.7,30.09,ESE,112,0.0,0.0,59,0.00,,CLR,0.00,VWS V12.08,2013-02-21 09:26:00,
2013-02-21 04:31:00,27.1,14.7,30.10,ESE,112,0.0,0.0,59,0.00,,CLR,0.00,VWS V12.08,2013-02-21 09:31:00,
2013-02-21 04:36:00,27.1,14.7,30.10,ESE,112,0.0,0.0,59,0.00,,CLR,0.00,VWS V12.08,2013-02-21 09:36:00,
2013-02-21 04:41:00,26.6,14.2,30.10,ESE,112,0.0,0.0,59,0.00,,CLR,0.00,VWS V12.08,2013-02-21 09:41:00,
2013-02-21 04:46:00,26.4,14.4,30.11,ESE,112,0.0,0.0,60,0.00,,CLR,0.00,VWS V12.08,2013-02-21 09:46:00,
2013-02-21 04:51:00,26.4,14.8,30.11,ESE,112,0.0,0.0,61,0.00,,CLR,0.00,VWS V12.08,2013-02-21 09:51:00,
2013-02-21 04:56:00,26.4,14.8,30.11,ESE,112,0.0,0.0,61,0.00,,CLR,0.00,VWS V12.08,2013-02-21 09:56:00,
2013-02-21 05:01:00,26.4,15.2,30.10,ESE,112,0.0,0.0,62,0.00,,CLR,0.00,VWS V12.08,2013-02-21 10:01:00,
2013-02-21 05:06:00,26.4,15.2,30.10,ESE,112,0.0,0.0,62,0.00,,CLR,0.00,VWS V12.08,2013-02-21 10:06:00,
2013-02-21 05:11:00,26.2,15.4,30.10,ESE,112,0.0,0.0,63,0.00,,CLR,0.00,VWS V12.08,2013-02-21 10:11:00,
2013-02-21 05:16:00,26.2,15.4,30.10,ESE,112,0.0,0.0,63,0.00,,CLR,0.00,VWS V12.08,2013-02-21 10:16:00,
2013-02-21 05:21:00,26.2,15.4,30.10,ESE,112,0.0,0.0,63,0.00,,CLR,0.00,VWS V12.08,2013-02-21 10:21:00,
2013-02-21 05:26:00,26.2,15.4,30.10,ESE,112,0.0,0.0,63,0.00,,CLR,0.00,VWS V12.08,2013-02-21 10:26:00,
2013-02-21 05:31:00,25.9,15.0,30.11,ESE,112,0.0,0.0,63,0.00,,CLR,0.00,VWS V12.08,2013-02-21 10:31:00,
2013-02-21 05:36:00,25.9,15.0,30.10,ESE,112,0.0,0.0,63,0.00,,CLR,0.00,VWS V12.08,2013-02-21 10:36:00,
2013-02-21 05:41:00,25.7,14.9,30.11,ESE,112,0.0,0.0,63,0.00,,CLR,0.00,VWS V12.08,2013-02-21 10:41:00,
2013-02-21 05:46:00,25.5,14.7,30.11,ESE,112,0.0,0.0,63,0.00,,CLR,0.00,VWS V12.08,2013-02-21 10:46:00,
2013-02-21 05:51:00,25.5,14.7,30.11,ESE,112,0.0,0.0,63,0.00,,CLR,0.00,VWS V12.08,2013-02-21 10:51:00,
2013-02-21 05:56:00,25.3,14.9,30.12,ESE,112,0.0,0.0,64,0.00,,CLR,0.00,VWS V12.08,2013-02-21 10:56:00,
2013-02-21 06:01:00,25.3,14.9,30.11,ESE,112,0.0,0.0,64,0.00,,CLR,0.00,VWS V12.08,2013-02-21 11:01:00,
2013-02-21 06:06:00,25.3,14.9,30.12,ESE,112,0.0,0.0,64,0.00,,CLR,0.00,VWS V12.08,2013-02-21 11:06:00,
2013-02-21 06:11:00,25.3,14.9,30.12,ESE,112,0.0,0.0,64,0.00,,CLR,0.00,VWS V12.08,2013-02-21 11:11:00,
2013-02-21 06:16:00,25.3,15.2,30.12,ESE,112,0.0,0.0,65,0.00,,CLR,0.00,VWS V12.08,2013-02-21 11:16:00,
2013-02-21 06:21:00,25.3,15.2,30.13,ESE,112,0.0,0.0,65,0.00,,CLR,0.00,VWS V12.08,2013-02-21 11:21:00,
2013-02-21 06:26:00,25.2,15.1,30.12,ESE,112,0.0,0.0,65,0.00,,CLR,0.00,VWS V12.08,2013-02-21 11:26:00,
2013-02-21 06:31:00,25.2,15.1,30.13,ESE,112,0.0,0.0,65,0.00,,CLR,0.00,VWS V12.08,2013-02-21 11:31:00,
2013-02-21 06:36:00,25.0,14.9,30.13,ESE,112,0.0,0.0,65,0.00,,CLR,0.00,VWS V12.08,2013-02-21 11:36:00,
2013-02-21 06:41:00,24.6,14.6,30.13,ESE,112,0.0,0.0,65,0.00,,CLR,0.00,VWS V12.08,2013-02-21 11:41:00,
2013-02-21 06:46:00,24.6,14.6,30.13,ESE,112,0.0,0.0,65,0.00,,CLR,0.00,VWS V12.08,2013-02-21 11:46:00,
2013-02-21 06:51:00,24.6,14.6,30.13,ESE,112,0.0,0.0,65,0.00,,CLR,0.00,VWS V12.08,2013-02-21 11:51:00,
2013-02-21 06:56:00,24.6,14.9,30.13,ESE,112,0.0,0.0,66,0.00,,CLR,0.00,VWS V12.08,2013-02-21 11:56:00,
2013-02-21 07:01:00,25.0,15.2,30.14,ESE,112,0.0,0.0,66,0.00,,CLR,0.00,VWS V12.08,2013-02-21 12:01:00,
2013-02-21 07:06:00,25.0,15.2,30.14,ESE,112,0.0,0.0,66,0.00,,CLR,0.00,VWS V12.08,2013-02-21 12:06:00,
2013-02-21 07:11:00,25.0,15.2,30.14,ESE,112,0.0,0.0,66,0.00,,CLR,0.00,VWS V12.08,2013-02-21 12:11:00,
2013-02-21 07:16:00,25.0,15.2,30.14,ESE,112,0.0,0.0,66,0.00,,CLR,0.00,VWS V12.08,2013-02-21 12:16:00,
2013-02-21 07:21:00,25.0,15.2,30.14,ESE,112,0.0,0.0,66,0.00,,CLR,0.00,VWS V12.08,2013-02-21 12:21:00,
2013-02-21 07:26:00,25.0,15.2,30.14,ESE,112,0.0,0.0,66,0.00,,CLR,0.00,VWS V12.08,2013-02-21 12:26:00,
2013-02-21 07:31:00,25.0,15.2,30.15,ESE,112,0.0,0.0,66,0.00,,CLR,0.00,VWS V12.08,2013-02-21 12:31:00,
2013-02-21 07:36:00,25.0,15.2,30.15,ESE,112,0.0,0.0,66,0.00,,CLR,0.00,VWS V12.08,2013-02-21 12:36:00,
2013-02-21 07:41:00,25.0,15.2,30.15,ESE,112,0.0,0.0,66,0.00,,CLR,0.00,VWS V12.08,2013-02-21 12:41:00,
2013-02-21 07:46:00,25.0,15.6,30.15,ESE,112,0.0,0.0,67,0.00,,CLR,0.00,VWS V12.08,2013-02-21 12:46:00,
2013-02-21 07:51:00,25.3,15.6,30.15,ESE,112,0.0,0.0,66,0.00,,CLR,0.00,VWS V12.08,2013-02-21 12:51:00,
2013-02-21 07:56:00,25.5,15.8,30.16,ESE,112,0.0,0.0,66,0.00,,CLR,0.00,VWS V12.08,2013-02-21 12:56:00,
2013-02-21 08:01:00,25.5,15.8,30.16,ESE,112,0.0,0.0,66,0.00,,CLR,0.00,VWS V12.08,2013-02-21 13:01:00,
2013-02-21 08:06:00,25.7,15.9,30.16,ESE,112,0.0,0.0,66,0.00,,CLR,0.00,VWS V12.08,2013-02-21 13:06:00,
2013-02-21 08:11:00,25.9,16.1,30.16,ESE,112,0.0,0.0,66,0.00,,CLR,0.00,VWS V12.08,2013-02-21 13:11:00,
2013-02-21 08:16:00,26.2,16.4,30.17,ESE,112,0.0,0.0,66,0.00,,CLR,0.00,VWS V12.08,2013-02-21 13:16:00,
2013-02-21 08:21:00,26.8,17.0,30.17,ESE,112,0.0,0.0,66,0.00,,CLR,0.00,VWS V12.08,2013-02-21 13:21:00,
2013-02-21 08:26:00,27.1,17.3,30.16,ESE,112,0.0,0.0,66,0.00,,CLR,0.00,VWS V12.08,2013-02-21 13:26:00,
2013-02-21 08:31:00,27.5,17.3,30.17,ESE,112,0.0,0.0,65,0.00,,CLR,0.00,VWS V12.08,2013-02-21 13:31:00,
2013-02-21 08:36:00,28.2,18.0,30.16,ESE,112,0.0,0.0,65,0.00,,CLR,0.00,VWS V12.08,2013-02-21 13:36:00,
2013-02-21 08:41:00,28.9,18.3,30.16,ESE,112,0.0,0.0,64,0.00,,CLR,0.00,VWS V12.08,2013-02-21 13:41:00,
2013-02-21 08:46:00,29.5,18.8,30.16,ESE,112,0.0,0.0,64,0.00,,CLR,0.00,VWS V12.08,2013-02-21 13:46:00,
2013-02-21 08:51:00,30.6,18.3,30.16,ESE,112,0.0,0.0,60,0.00,,CLR,0.00,VWS V12.08,2013-02-21 13:51:00,
2013-02-21 08:56:00,31.1,18.9,30.16,ESE,112,0.0,0.0,60,0.00,,CLR,0.00,VWS V12.08,2013-02-21 13:56:00,
2013-02-21 09:01:00,31.8,17.9,30.16,ESE,112,0.0,0.0,56,0.00,,CLR,0.00,VWS V12.08,2013-02-21 14:01:00,
2013-02-21 09:06:00,32.2,18.3,30.16,ESE,112,0.0,0.0,56,0.00,,CLR,0.00,VWS V12.08,2013-02-21 14:06:00,
2013-02-21 09:11:00,33.3,18.0,30.16,ESE,112,0.0,0.0,53,0.00,,CLR,0.00,VWS V12.08,2013-02-21 14:11:00,
2013-02-21 09:16:00,33.6,18.8,30.16,ESE,112,0.0,0.0,54,0.00,,CLR,0.00,VWS V12.08,2013-02-21 14:16:00,
2013-02-21 09:21:00,34.3,19.0,30.16,ESE,112,0.0,0.0,53,0.00,,CLR,0.00,VWS V12.08,2013-02-21 14:21:00,
2013-02-21 09:26:00,35.2,18.5,30.17,ESE,112,0.0,0.0,50,0.00,,CLR,0.00,VWS V12.08,2013-02-21 14:26:00,
2013-02-21 09:31:00,35.4,18.2,30.16,ESE,112,0.0,0.0,49,0.00,,CLR,0.00,VWS V12.08,2013-02-21 14:31:00,
2013-02-21 09:36:00,36.1,18.4,30.16,East,90,0.0,0.0,48,0.00,,CLR,0.00,VWS V12.08,2013-02-21 14:36:00,
2013-02-21 09:41:00,36.7,18.9,30.16,East,90,0.0,0.0,48,0.00,,CLR,0.00,VWS V12.08,2013-02-21 14:41:00,
2013-02-21 09:46:00,37.2,18.9,30.16,East,90,0.0,0.0,47,0.00,,CLR,0.00,VWS V12.08,2013-02-21 14:46:00,
2013-02-21 09:51:00,37.9,18.0,30.16,WNW,292,0.0,0.7,44,0.00,,CLR,0.00,VWS V12.08,2013-02-21 14:51:00,
2013-02-21 09:56:00,38.3,18.3,30.16,NW,315,0.0,0.7,44,0.00,,CLR,0.00,VWS V12.08,2013-02-21 14:56:00,
2013-02-21 10:01:00,38.8,18.8,30.16,West,270,0.0,0.0,44,0.00,,CLR,0.00,VWS V12.08,2013-02-21 15:01:00,
2013-02-21 10:06:00,39.6,19.5,30.16,East,90,0.0,0.0,44,0.00,,CLR,0.00,VWS V12.08,2013-02-21 15:06:00,
2013-02-21 10:11:00,40.1,19.4,30.16,East,90,0.0,0.0,43,0.00,,CLR,0.00,VWS V12.08,2013-02-21 15:11:00,
2013-02-21 10:16:00,40.8,20.1,30.16,ENE,68,0.0,0.0,43,0.00,,CLR,0.00,VWS V12.08,2013-02-21 15:16:00,
2013-02-21 10:21:00,41.2,18.7,30.16,NNW,338,0.0,0.0,40,0.00,,CLR,0.00,VWS V12.08,2013-02-21 15:21:00,
2013-02-21 10:26:00,41.7,19.2,30.16,NW,315,0.0,5.1,40,0.00,,CLR,0.00,VWS V12.08,2013-02-21 15:26:00,
2013-02-21 10:31:00,42.1,18.9,30.16,WNW,292,5.4,5.4,39,0.00,,CLR,0.00,VWS V12.08,2013-02-21 15:31:00,
2013-02-21 10:36:00,42.6,18.8,30.16,West,270,0.0,5.6,38,0.00,,CLR,0.00,VWS V12.08,2013-02-21 15:36:00,
2013-02-21 10:41:00,43.0,19.1,30.16,West,270,0.0,1.6,38,0.00,,CLR,0.00,VWS V12.08,2013-02-21 15:41:00,
2013-02-21 10:46:00,43.2,18.7,30.16,NW,315,0.0,4.5,37,0.00,,CLR,0.00,VWS V12.08,2013-02-21 15:46:00,
2013-02-21 10:51:00,43.5,19.0,30.16,NW,315,0.0,4.5,37,0.00,,CLR,0.00,VWS V12.08,2013-02-21 15:51:00,
2013-02-21 10:56:00,44.1,18.8,30.15,West,270,0.0,4.5,36,0.00,,CLR,0.00,VWS V12.08,2013-02-21 15:56:00,
2013-02-21 11:01:00,44.4,18.5,30.15,WNW,292,0.0,0.0,35,0.00,,CLR,0.00,VWS V12.08,2013-02-21 16:01:00,
2013-02-21 11:06:00,44.8,19.5,30.15,WNW,292,0.0,1.3,36,0.00,,CLR,0.00,VWS V12.08,2013-02-21 16:06:00,
2013-02-21 11:11:00,45.5,20.1,30.14,NE,45,0.0,1.3,36,0.00,,CLR,0.00,VWS V12.08,2013-02-21 16:11:00,
2013-02-21 11:16:00,46.0,19.9,30.14,NNE,22,0.0,1.3,35,0.00,,CLR,0.00,VWS V12.08,2013-02-21 16:16:00,
2013-02-21 11:21:00,46.8,20.6,30.15,NNE,22,2.0,2.7,35,0.00,,CLR,0.00,VWS V12.08,2013-02-21 16:21:00,
2013-02-21 11:26:00,47.3,21.0,30.14,ENE,68,0.0,2.7,35,0.00,,CLR,0.00,VWS V12.08,2013-02-21 16:26:00,
2013-02-21 11:31:00,47.8,20.9,30.14,East,90,0.9,2.7,34,0.00,,CLR,0.00,VWS V12.08,2013-02-21 16:31:00,
2013-02-21 11:36:00,48.7,22.3,30.14,ENE,68,0.0,2.7,35,0.00,,CLR,0.00,VWS V12.08,2013-02-21 16:36:00,
2013-02-21 11:41:00,49.1,22.6,30.14,ENE,68,0.0,0.0,35,0.00,,CLR,0.00,VWS V12.08,2013-02-21 16:41:00,
2013-02-21 11:46:00,49.8,22.6,30.13,NW,315,2.0,2.0,34,0.00,,CLR,0.00,VWS V12.08,2013-02-21 16:46:00,
2013-02-21 11:51:00,50.0,22.0,30.13,WNW,292,0.0,3.8,33,0.00,,CLR,0.00,VWS V12.08,2013-02-21 16:51:00,
2013-02-21 11:56:00,50.2,21.5,30.13,West,270,0.9,3.8,32,0.00,,CLR,0.00,VWS V12.08,2013-02-21 16:56:00,
2013-02-21 12:01:00,50.2,21.5,30.13,WSW,248,0.0,1.8,32,0.00,,CLR,0.00,VWS V12.08,2013-02-21 17:01:00,
2013-02-21 12:06:00,50.5,21.0,30.12,West,270,0.0,1.8,31,0.00,,CLR,0.00,VWS V12.08,2013-02-21 17:06:00,
2013-02-21 12:11:00,50.7,21.2,30.11,ENE,68,0.7,1.8,31,0.00,,CLR,0.00,VWS V12.08,2013-02-21 17:11:00,
2013-02-21 12:16:00,51.6,22.0,30.11,ENE,68,1.8,3.1,31,0.00,,CLR,0.00,VWS V12.08,2013-02-21 17:16:00,
2013-02-21 12:21:00,52.3,22.6,30.11,ESE,112,0.0,0.0,31,0.00,,CLR,0.00,VWS V12.08,2013-02-21 17:21:00,
2013-02-21 12:26:00,52.9,21.5,30.11,ENE,68,0.7,2.2,29,0.00,,CLR,0.00,VWS V12.08,2013-02-21 17:26:00,
2013-02-21 12:31:00,53.2,21.8,30.10,ESE,112,0.0,2.2,29,0.00,,CLR,0.00,VWS V12.08,2013-02-21 17:31:00,
2013-02-21 12:36:00,53.8,23.1,30.09,ENE,68,0.0,4.7,30,0.00,,CLR,0.00,VWS V12.08,2013-02-21 17:36:00,
2013-02-21 12:41:00,54.1,21.8,30.09,WNW,292,0.0,1.3,28,0.00,,CLR,0.00,VWS V12.08,2013-02-21 17:41:00,
2013-02-21 12:46:00,54.7,23.1,30.09,NE,45,0.0,4.9,29,0.00,,CLR,0.00,VWS V12.08,2013-02-21 17:46:00,
2013-02-21 12:51:00,55.2,21.0,30.08,WNW,292,2.9,5.6,26,0.00,,CLR,0.00,VWS V12.08,2013-02-21 17:51:00,
2013-02-21 12:56:00,55.2,21.8,30.08,NW,315,0.0,5.6,27,0.00,,CLR,0.00,VWS V12.08,2013-02-21 17:56:00,
2013-02-21 13:01:00,55.2,21.8,30.08,NE,45,0.0,0.0,27,0.00,,CLR,0.00,VWS V12.08,2013-02-21 18:01:00,
2013-02-21 13:06:00,55.4,22.0,30.07,NW,315,0.0,1.8,27,0.00,,CLR,0.00,VWS V12.08,2013-02-21 18:06:00,
2013-02-21 13:11:00,55.8,22.3,30.07,WNW,292,0.0,4.3,27,0.00,,CLR,0.00,VWS V12.08,2013-02-21 18:11:00,
2013-02-21 13:16:00,55.9,22.5,30.07,SE,135,0.0,4.5,27,0.00,,CLR,0.00,VWS V12.08,2013-02-21 18:16:00,
2013-02-21 13:21:00,56.5,23.8,30.06,North,0,0.7,6.3,28,0.00,,CLR,0.00,VWS V12.08,2013-02-21 18:21:00,
2013-02-21 13:26:00,56.7,24.0,30.06,NW,315,0.0,6.3,28,0.00,,CLR,0.00,VWS V12.08,2013-02-21 18:26:00,
2013-02-21 13:32:00,56.8,23.2,30.06,ESE,112,2.2,6.3,27,0.00,,CLR,0.00,VWS V12.08,2013-02-21 18:32:00,
2013-02-21 13:36:00,56.8,24.1,30.06,ESE,112,3.8,6.3,28,0.00,,CLR,0.00,VWS V12.08,2013-02-21 18:36:00,
2013-02-21 13:41:00,56.8,24.1,30.05,SE,135,0.9,0.9,28,0.00,,CLR,0.00,VWS V12.08,2013-02-21 18:41:00,
2013-02-21 13:47:00,57.0,23.4,30.05,NNE,22,0.0,1.3,27,0.00,,CLR,0.00,VWS V12.08,2013-02-21 18:47:00,
2013-02-21 13:52:00,57.4,24.6,30.05,East,90,2.7,6.0,28,0.00,,CLR,0.00,VWS V12.08,2013-02-21 18:52:00,
2013-02-21 13:57:00,57.4,24.6,30.05,East,90,0.0,6.0,28,0.00,,CLR,0.00,VWS V12.08,2013-02-21 18:57:00,
2013-02-21 14:02:00,57.4,23.7,30.04,East,90,1.6,4.5,27,0.00,,CLR,0.00,VWS V12.08,2013-02-21 19:02:00,
2013-02-21 14:07:00,57.4,22.8,30.05,NNE,22,0.4,4.5,26,0.00,,CLR,0.00,VWS V12.08,2013-02-21 19:07:00,
2013-02-21 14:12:00,57.7,24.0,30.05,NE,45,1.3,4.5,27,0.00,,CLR,0.00,VWS V12.08,2013-02-21 19:12:00,
2013-02-21 14:17:00,57.7,24.0,30.05,ENE,68,1.3,4.5,27,0.00,,CLR,0.00,VWS V12.08,2013-02-21 19:17:00,
2013-02-21 14:22:00,58.1,24.3,30.05,SE,135,2.7,3.6,27,0.00,,CLR,0.00,VWS V12.08,2013-02-21 19:22:00,
2013-02-21 14:27:00,58.1,23.4,30.04,NNE,22,0.9,5.4,26,0.00,,CLR,0.00,VWS V12.08,2013-02-21 19:27:00,
2013-02-21 14:32:00,58.1,23.4,30.04,SE,135,0.0,5.4,26,0.00,,CLR,0.00,VWS V12.08,2013-02-21 19:32:00,
2013-02-21 14:37:00,58.5,23.7,30.04,ENE,68,0.0,5.4,26,0.00,,CLR,0.00,VWS V12.08,2013-02-21 19:37:00,
2013-02-21 14:42:00,58.5,23.7,30.04,NNE,22,0.0,3.4,26,0.00,,CLR,0.00,VWS V12.08,2013-02-21 19:42:00,
2013-02-21 14:47:00,58.6,23.9,30.04,NE,45,1.3,4.9,26,0.00,,CLR,0.00,VWS V12.08,2013-02-21 19:47:00,
2013-02-21 14:52:00,58.6,23.9,30.04,ENE,68,0.0,4.9,26,0.00,,CLR,0.00,VWS V12.08,2013-02-21 19:52:00,
2013-02-21 14:57:00,58.8,24.9,30.04,ESE,112,0.0,4.9,27,0.00,,CLR,0.00,VWS V12.08,2013-02-21 19:57:00,
2013-02-21 15:02:00,58.8,24.9,30.05,SSE,158,0.0,2.2,27,0.00,,CLR,0.00,VWS V12.08,2013-02-21 20:02:00,
2013-02-21 15:07:00,58.8,24.9,30.05,East,90,1.8,4.7,27,0.00,,CLR,0.00,VWS V12.08,2013-02-21 20:07:00,
2013-02-21 15:12:00,58.8,24.9,30.05,NE,45,0.0,4.7,27,0.00,,CLR,0.00,VWS V12.08,2013-02-21 20:12:00,
2013-02-21 15:17:00,58.6,24.8,30.05,NE,45,0.0,5.8,27,0.00,,CLR,0.00,VWS V12.08,2013-02-21 20:17:00,
2013-02-21 15:22:00,58.6,24.8,30.06,ENE,68,2.2,3.4,27,0.00,,CLR,0.00,VWS V12.08,2013-02-21 20:22:00,
2013-02-21 15:27:00,58.8,24.9,30.05,SE,135,0.0,3.6,27,0.00,,CLR,0.00,VWS V12.08,2013-02-21 20:27:00,
2013-02-21 15:32:00,58.8,25.8,30.06,ENE,68,0.9,4.0,28,0.00,,CLR,0.00,VWS V12.08,2013-02-21 20:32:00,
2013-02-21 15:37:00,58.8,24.9,30.06,ESE,112,0.0,4.0,27,0.00,,CLR,0.00,VWS V12.08,2013-02-21 20:37:00,
2013-02-21 15:42:00,59.4,26.3,30.06,SSE,158,4.0,4.0,28,0.00,,CLR,0.00,VWS V12.08,2013-02-21 20:42:00,
2013-02-21 15:47:00,59.5,26.4,30.06,SE,135,1.8,4.3,28,0.00,,CLR,0.00,VWS V12.08,2013-02-21 20:47:00,
2013-02-21 15:52:00,59.4,25.4,30.06,East,90,0.0,4.3,27,0.00,,CLR,0.00,VWS V12.08,2013-02-21 20:52:00,
2013-02-21 15:57:00,58.8,24.9,30.06,ENE,68,2.9,5.6,27,0.00,,CLR,0.00,VWS V12.08,2013-02-21 20:57:00,
2013-02-21 16:02:00,58.8,24.9,30.06,ENE,68,0.0,2.9,27,0.00,,CLR,0.00,VWS V12.08,2013-02-21 21:02:00,
2013-02-21 16:07:00,58.5,25.5,30.06,ESE,112,2.7,3.8,28,0.00,,CLR,0.00,VWS V12.08,2013-02-21 21:07:00,
2013-02-21 16:12:00,58.1,25.2,30.06,SE,135,3.8,3.8,28,0.00,,CLR,0.00,VWS V12.08,2013-02-21 21:12:00,
2013-02-21 16:17:00,57.9,25.0,30.06,SE,135,0.0,4.0,28,0.00,,CLR,0.00,VWS V12.08,2013-02-21 21:17:00,
2013-02-21 16:22:00,57.9,25.0,30.06,SE,135,0.0,2.5,28,0.00,,CLR,0.00,VWS V12.08,2013-02-21 21:22:00,
2013-02-21 16:27:00,57.7,24.9,30.06,ENE,68,0.0,2.5,28,0.00,,CLR,0.00,VWS V12.08,2013-02-21 21:27:00,
2013-02-21 16:32:00,57.7,24.9,30.06,ENE,68,0.0,2.5,28,0.00,,CLR,0.00,VWS V12.08,2013-02-21 21:32:00,
2013-02-21 16:37:00,57.4,25.4,30.05,ENE,68,1.3,2.5,29,0.00,,CLR,0.00,VWS V12.08,2013-02-21 21:37:00,
2013-02-21 16:42:00,57.0,24.3,30.05,ENE,68,0.0,3.4,28,0.00,,CLR,0.00,VWS V12.08,2013-02-21 21:42:00,
2013-02-21 16:47:00,56.8,24.1,30.05,ENE,68,1.3,3.4,28,0.00,,CLR,0.00,VWS V12.08,2013-02-21 21:47:00,
2013-02-21 16:52:00,56.5,24.6,30.04,ESE,112,0.0,3.8,29,0.00,,CLR,0.00,VWS V12.08,2013-02-21 21:52:00,
2013-02-21 16:57:00,56.1,24.3,30.05,East,90,0.0,3.8,29,0.00,,CLR,0.00,VWS V12.08,2013-02-21 21:57:00,
2013-02-21 17:02:00,55.9,24.2,30.06,SE,135,0.0,0.0,29,0.00,,CLR,0.00,VWS V12.08,2013-02-21 22:02:00,
2013-02-21 17:07:00,55.6,23.9,30.06,SE,135,0.0,0.0,29,0.00,,CLR,0.00,VWS V12.08,2013-02-21 22:07:00,
2013-02-21 17:12:00,55.2,24.4,30.06,SE,135,0.0,1.3,30,0.00,,CLR,0.00,VWS V12.08,2013-02-21 22:12:00,
2013-02-21 17:17:00,55.0,24.2,30.06,ESE,112,0.0,1.3,30,0.00,,CLR,0.00,VWS V12.08,2013-02-21 22:17:00,
2013-02-21 17:22:00,54.5,23.7,30.06,NE,45,2.0,3.1,30,0.00,,CLR,0.00,VWS V12.08,2013-02-21 22:22:00,
2013-02-21 17:27:00,54.1,23.4,30.06,NE,45,0.0,3.1,30,0.00,,CLR,0.00,VWS V12.08,2013-02-21 22:27:00,
2013-02-21 17:32:00,53.8,23.1,30.06,NE,45,0.0,3.1,30,0.00,,CLR,0.00,VWS V12.08,2013-02-21 22:32:00,
2013-02-21 17:37:00,53.4,23.6,30.05,NE,45,0.0,3.1,31,0.00,,CLR,0.00,VWS V12.08,2013-02-21 22:37:00,
2013-02-21 17:42:00,53.4,23.6,30.07,NE,45,0.0,0.0,31,0.00,,CLR,0.00,VWS V12.08,2013-02-21 22:42:00,
2013-02-21 17:47:00,53.1,23.2,30.07,NE,45,0.0,0.0,31,0.00,,CLR,0.00,VWS V12.08,2013-02-21 22:47:00,
2013-02-21 17:52:00,52.9,23.1,30.07,ENE,68,0.0,1.3,31,0.00,,CLR,0.00,VWS V12.08,2013-02-21 22:52:00,
2013-02-21 17:57:00,52.5,23.5,30.07,NE,45,0.0,1.3,32,0.00,,CLR,0.00,VWS V12.08,2013-02-21 22:57:00,
2013-02-21 18:02:00,52.2,23.2,30.08,NE,45,0.0,0.0,32,0.00,,CLR,0.00,VWS V12.08,2013-02-21 23:02:00,
2013-02-21 18:07:00,52.0,23.1,30.08,NE,45,0.0,0.0,32,0.00,,CLR,0.00,VWS V12.08,2013-02-21 23:07:00,
2013-02-21 18:12:00,51.6,22.7,30.08,NE,45,0.0,0.0,32,0.00,,CLR,0.00,VWS V12.08,2013-02-21 23:12:00,
2013-02-21 18:17:00,51.3,23.2,30.08,NE,45,0.0,0.0,33,0.00,,CLR,0.00,VWS V12.08,2013-02-21 23:17:00,
2013-02-21 18:22:00,50.9,22.8,30.08,NE,45,0.0,0.0,33,0.00,,CLR,0.00,VWS V12.08,2013-02-21 23:22:00,
2013-02-21 18:27:00,50.7,22.7,30.09,NE,45,0.0,0.0,33,0.00,,CLR,0.00,VWS V12.08,2013-02-21 23:27:00,
2013-02-21 18:32:00,50.5,22.5,30.09,NE,45,0.0,0.4,33,0.00,,CLR,0.00,VWS V12.08,2013-02-21 23:32:00,
2013-02-21 18:37:00,50.2,22.9,30.09,NE,45,0.0,0.4,34,0.00,,CLR,0.00,VWS V12.08,2013-02-21 23:37:00,
2013-02-21 18:42:00,49.8,22.6,30.09,ENE,68,0.0,0.0,34,0.00,,CLR,0.00,VWS V12.08,2013-02-21 23:42:00,
2013-02-21 18:47:00,49.6,22.4,30.08,NE,45,0.0,0.0,34,0.00,,CLR,0.00,VWS V12.08,2013-02-21 23:47:00,
2013-02-21 18:52:00,49.6,22.4,30.08,NE,45,0.0,0.0,34,0.00,,CLR,0.00,VWS V12.08,2013-02-21 23:52:00,
2013-02-21 18:57:00,49.1,22.6,30.08,NE,45,0.0,0.0,35,0.00,,CLR,0.00,VWS V12.08,2013-02-21 23:57:00,
2013-02-21 19:02:00,48.9,22.5,30.08,ENE,68,0.0,0.0,35,0.00,,CLR,0.00,VWS V12.08,2013-02-22 00:02:00,
2013-02-21 19:07:00,48.7,22.3,30.08,NE,45,0.0,0.0,35,0.00,,CLR,0.00,VWS V12.08,2013-02-22 00:07:00,
2013-02-21 19:12:00,48.7,22.3,30.07,ENE,68,0.0,0.0,35,0.00,,CLR,0.00,VWS V12.08,2013-02-22 00:12:00,
2013-02-21 19:17:00,48.4,22.7,30.08,ENE,68,0.0,0.0,36,0.00,,CLR,0.00,VWS V12.08,2013-02-22 00:17:00,
2013-02-21 19:22:00,48.4,22.7,30.08,ENE,68,0.0,0.0,36,0.00,,CLR,0.00,VWS V12.08,2013-02-22 00:22:00,
2013-02-21 19:27:00,48.2,22.5,30.09,ENE,68,0.0,0.0,36,0.00,,CLR,0.00,VWS V12.08,2013-02-22 00:27:00,
2013-02-21 19:32:00,48.0,23.0,30.09,ENE,68,0.0,0.0,37,0.00,,CLR,0.00,VWS V12.08,2013-02-22 00:32:00,
2013-02-21 19:37:00,48.0,23.6,30.09,ENE,68,0.0,0.0,38,0.00,,CLR,0.00,VWS V12.08,2013-02-22 00:37:00,
2013-02-21 19:42:00,47.8,24.1,30.09,ENE,68,0.0,0.0,39,0.00,,CLR,0.00,VWS V12.08,2013-02-22 00:42:00,
2013-02-21 19:47:00,47.7,23.3,30.09,ENE,68,0.0,0.0,38,0.00,,CLR,0.00,VWS V12.08,2013-02-22 00:47:00,
2013-02-21 19:52:00,47.5,23.8,30.08,ENE,68,0.0,0.0,39,0.00,,CLR,0.00,VWS V12.08,2013-02-22 00:52:00,
2013-02-21 19:57:00,47.3,23.6,30.09,ENE,68,0.0,0.0,39,0.00,,CLR,0.00,VWS V12.08,2013-02-22 00:57:00,
2013-02-21 20:02:00,47.3,23.6,30.10,ENE,68,0.0,0.0,39,0.00,,CLR,0.00,VWS V12.08,2013-02-22 01:02:00,
2013-02-21 20:07:00,47.1,23.5,30.09,ENE,68,0.0,0.0,39,0.00,,CLR,0.00,VWS V12.08,2013-02-22 01:07:00,
2013-02-21 20:12:00,47.1,24.1,30.10,ENE,68,0.0,0.0,40,0.00,,CLR,0.00,VWS V12.08,2013-02-22 01:12:00,
2013-02-21 20:17:00,46.9,23.9,30.10,ESE,112,0.0,0.0,40,0.00,,CLR,0.00,VWS V12.08,2013-02-22 01:17:00,
2013-02-21 20:22:00,46.9,23.3,30.10,ESE,112,0.0,0.0,39,0.00,,CLR,0.00,VWS V12.08,2013-02-22 01:22:00,
2013-02-21 20:27:00,46.8,23.7,30.10,ESE,112,0.0,0.0,40,0.00,,CLR,0.00,VWS V12.08,2013-02-22 01:27:00,
2013-02-21 20:32:00,46.6,23.6,30.09,ESE,112,0.0,0.0,40,0.00,,CLR,0.00,VWS V12.08,2013-02-22 01:32:00,
2013-02-21 20:37:00,46.6,24.2,30.10,ESE,112,0.0,0.0,41,0.00,,CLR,0.00,VWS V12.08,2013-02-22 01:37:00,
2013-02-21 20:42:00,46.6,24.2,30.10,ESE,112,0.0,0.0,41,0.00,,CLR,0.00,VWS V12.08,2013-02-22 01:42:00,
2013-02-21 20:47:00,46.2,23.8,30.11,ESE,112,0.0,0.0,41,0.00,,CLR,0.00,VWS V12.08,2013-02-22 01:47:00,
2013-02-21 20:52:00,46.4,23.4,30.11,ESE,112,0.0,0.0,40,0.00,,CLR,0.00,VWS V12.08,2013-02-22 01:52:00,
2013-02-21 20:57:00,46.4,23.4,30.10,ESE,112,0.0,0.0,40,0.00,,CLR,0.00,VWS V12.08,2013-02-22 01:57:00,
2013-02-21 21:03:00,46.2,23.8,30.11,ESE,112,0.0,0.0,41,0.00,,CLR,0.00,VWS V12.08,2013-02-22 02:03:00,
2013-02-21 21:08:00,46.2,23.8,30.12,ESE,112,0.0,0.0,41,0.00,,CLR,0.00,VWS V12.08,2013-02-22 02:08:00,
2013-02-21 21:13:00,46.2,23.8,30.11,ESE,112,0.0,0.0,41,0.00,,CLR,0.00,VWS V12.08,2013-02-22 02:13:00,
2013-02-21 21:18:00,46.2,23.8,30.12,ESE,112,0.0,0.0,41,0.00,,CLR,0.00,VWS V12.08,2013-02-22 02:18:00,
2013-02-21 21:23:00,46.2,23.8,30.13,ESE,112,0.0,0.0,41,0.00,,CLR,0.00,VWS V12.08,2013-02-22 02:23:00,
2013-02-21 21:28:00,46.6,24.7,30.13,ESE,112,0.0,0.0,42,0.00,,CLR,0.00,VWS V12.08,2013-02-22 02:28:00,
2013-02-21 21:33:00,46.6,24.7,30.14,ESE,112,0.0,0.0,42,0.00,,CLR,0.00,VWS V12.08,2013-02-22 02:33:00,
2013-02-21 21:38:00,46.6,24.2,30.14,ESE,112,0.0,0.0,41,0.00,,CLR,0.00,VWS V12.08,2013-02-22 02:38:00,
2013-02-21 21:43:00,46.6,24.2,30.16,ESE,112,0.0,0.0,41,0.00,,CLR,0.00,VWS V12.08,2013-02-22 02:43:00,
2013-02-21 21:48:00,46.6,24.2,30.16,ESE,112,0.0,0.0,41,0.00,,CLR,0.00,VWS V12.08,2013-02-22 02:48:00,
2013-02-21 21:53:00,46.6,24.7,30.17,ESE,112,0.0,0.0,42,0.00,,CLR,0.00,VWS V12.08,2013-02-22 02:53:00,
2013-02-21 21:58:00,46.6,25.3,30.17,ESE,112,0.0,0.0,43,0.00,,CLR,0.00,VWS V12.08,2013-02-22 02:58:00,
2013-02-21 22:03:00,46.4,25.7,30.17,ESE,112,0.0,0.0,44,0.00,,CLR,0.00,VWS V12.08,2013-02-22 03:03:00,
2013-02-21 22:08:00,46.2,26.1,30.17,ESE,112,0.0,0.0,45,0.00,,CLR,0.00,VWS V12.08,2013-02-22 03:08:00,
2013-02-21 22:13:00,46.2,26.6,30.17,ESE,112,0.0,0.0,46,0.00,,CLR,0.00,VWS V12.08,2013-02-22 03:13:00,
2013-02-21 22:18:00,46.0,26.4,30.17,ENE,68,0.0,0.0,46,0.00,,CLR,0.00,VWS V12.08,2013-02-22 03:18:00,
2013-02-21 22:23:00,46.0,27.0,30.16,ENE,68,0.0,0.0,47,0.00,,CLR,0.00,VWS V12.08,2013-02-22 03:23:00,
2013-02-21 22:28:00,45.3,28.3,30.15,ENE,68,0.0,0.0,51,0.00,,CLR,0.00,VWS V12.08,2013-02-22 03:28:00,
2013-02-21 22:33:00,45.0,28.4,30.15,ENE,68,0.0,0.0,52,0.00,,CLR,0.00,VWS V12.08,2013-02-22 03:33:00,
2013-02-21 22:38:00,44.8,29.2,30.15,ENE,68,0.0,0.0,54,0.00,,CLR,0.00,VWS V12.08,2013-02-22 03:38:00,
2013-02-21 22:43:00,44.4,28.8,30.16,ENE,68,0.0,0.0,54,0.00,,CLR,0.00,VWS V12.08,2013-02-22 03:43:00,
2013-02-21 22:48:00,44.2,29.1,30.18,ESE,112,0.0,0.0,55,0.00,,CLR,0.00,VWS V12.08,2013-02-22 03:48:00,
2013-02-21 22:53:00,44.1,29.4,30.19,ESE,112,0.0,0.0,56,0.00,,CLR,0.00,VWS V12.08,2013-02-22 03:53:00,
2013-02-21 22:58:00,43.7,29.9,30.19,ESE,112,0.0,0.0,58,0.00,,CLR,0.00,VWS V12.08,2013-02-22 03:58:00,
2013-02-21 23:03:00,43.5,30.6,30.19,ESE,112,0.0,0.0,60,0.00,,CLR,0.00,VWS V12.08,2013-02-22 04:03:00,
2013-02-21 23:08:00,43.3,30.8,30.19,ESE,112,0.0,0.0,61,0.00,,CLR,0.00,VWS V12.08,2013-02-22 04:08:00,
2013-02-21 23:13:00,43.3,30.8,30.19,ESE,112,0.0,0.0,61,0.00,,CLR,0.00,VWS V12.08,2013-02-22 04:13:00,
2013-02-21 23:18:00,42.6,30.9,30.19,SE,135,2.5,2.5,63,0.00,,CLR,0.00,VWS V12.08,2013-02-22 04:18:00,
2013-02-21 23:23:00,42.4,30.8,30.19,SE,135,0.0,0.0,63,0.04,,CLR,0.04,VWS V12.08,2013-02-22 04:23:00,
2013-02-21 23:28:00,42.1,30.8,30.20,SE,135,0.0,0.0,64,0.04,,CLR,0.04,VWS V12.08,2013-02-22 04:28:00,
2013-02-21 23:33:00,41.9,31.0,30.21,SE,135,0.0,0.0,65,0.06,,CLR,0.06,VWS V12.08,2013-02-22 04:33:00,
2013-02-21 23:38:00,41.7,30.8,30.21,SE,135,0.0,0.0,65,0.06,,CLR,0.06,VWS V12.08,2013-02-22 04:38:00,
2013-02-21 23:43:00,41.0,30.5,30.21,SE,135,0.0,0.0,66,0.06,,CLR,0.06,VWS V12.08,2013-02-22 04:43:00,
2013-02-21 23:48:00,40.8,30.7,30.22,SE,135,0.0,0.0,67,0.09,,CLR,0.09,VWS V12.08,2013-02-22 04:48:00,
2013-02-21 23:53:00,40.8,31.1,30.22,SE,135,0.0,0.0,68,0.09,,CLR,0.09,VWS V12.08,2013-02-22 04:53:00,
2013-02-21 23:58:00,40.6,30.9,30.21,SE,135,0.0,0.0,68,0.11,,CLR,0.11,VWS V12.08,2013-02-22 04:58:00,